Find Landsat 9

NORAD ID: 49260 Int'l Des: 2021-088 Owner: USGS/GSFC Country: US operational
LEOCIRCULARRETROGRADESSO

Live Position

Loading 3D Globe...

About Landsat 9

Description loading...

Upcoming Passes

Passes for default location (London). Set your location on the main map for personalized predictions.

Altitude History

Loading altitude history...

Two-Line Element Set

1 49260U 21088A 26106.18822897 .00000196 00000-0 53563-4 0 9992
2 49260 98.1881 177.3565 0001135 101.6405 258.4921 14.57114100241977
Epoch: Apr 16, 2026 • Age: 8 hours

Current Status

Altitude 731.6 km
Velocity 7.49 km/s
Sub-Earth Point -81.86°S, 122.21°W
Launch Date Sep 27, 2021
Age 4.5 years
Type earth observation

Technical Details

Classification Payload
Mass 2710.00 kg
Dry Mass 2390.00 kg
Total Mass 2710.00 kg
Length 5.80 m
Diameter 2.50 m
Span 13.00 m
Shape Cyl hex + pan
Manufacturer NGISGA
Bus Type Leostar-3
Phase Status In Orbit
Owner/State USGS/GSFC/US

Most Searched